Ardmore, OK

7:24 AM CDT on April 19, 2018 (GMT -0500)
Ardmore Municipal

Weather History for KADM - February, 2014

Change the Weather History Date:

Saturday, February 15, 2014

  Actual Average Record
Temperature  
Mean Temperature 46 °F -  
Max Temperature 66 °F 55 °F 80 °F (2000)
Min Temperature 26 °F 37 °F 19 °F (2007)
Degree Days  
Heating Degree Days 19    
Moisture  
Dew Point 30 °F    
Average Humidity 77    
Maximum Humidity 100    
Minimum Humidity 28    
Precipitation  
Precipitation 0.00 in - - ()
Sea Level Pressure  
Sea Level Pressure 30.09 in    
Wind  
Wind Speed 2 mph (South)    
Max Wind Speed 16 mph    
Max Gust Speed 22 mph    
Visibility 10 miles    
Events      
Averages and records for this station are not official NWS values.
T = Trace of Precipitation, MM = Missing Value Source: NWS Daily Summary

Daily Weather History Graph

Daily Weather History Graph

Search for Another Location

Airport or City:

Astronomy

Feb. 15, 2014 Rise Set
Actual Time 7:13 AM CST 6:11 PM CST
Civil Twilight 6:47 AM CST 6:37 PM CST
Nautical Twilight 6:18 AM CST 7:06 PM CST
Astronomical Twilight 5:48 AM CST 7:36 PM CST
Moon 7:08 PM CST (2/15) 7:16 AM CST (2/15)
Length of Visible Light 11h 50m
Length of Day
10h 58m
Waxing Gibbous, 99% of the Moon is Illuminated
Feb 15
Waxing Gibbous
Feb 22
Last Quarter
Mar 1
New
Mar 8
First Quarter
Mar 16
Full

Hourly Weather History & Observations

Time (CST) Temp. Windchill Dew Point Humidity Pressure Visibility Wind Dir Wind Speed Gust Speed Precip Events Conditions
12:15 AM 32.9 °F - 27.5 °F 81% 30.12 in 10.0 mi Calm Calm - N/A   Clear
12:35 AM 33.1 °F - 27.3 °F 79% 30.12 in 10.0 mi Calm Calm - N/A   Clear
12:55 AM 32.4 °F - 26.4 °F 79% 30.12 in 10.0 mi Calm Calm - N/A   Clear
1:15 AM 32.0 °F - 28.4 °F 87% 30.11 in 10.0 mi Calm Calm - N/A   Clear
1:35 AM 30.6 °F - 26.1 °F 83% 30.11 in 10.0 mi Calm Calm - N/A   Clear
1:55 AM 32.4 °F - 28.0 °F 84% 30.11 in 10.0 mi Calm Calm - N/A   Clear
2:15 AM 31.3 °F 27.9 °F 28.0 °F 88% 30.11 in 10.0 mi North 3.5 mph - N/A   Clear
2:35 AM 30.7 °F - 28.2 °F 90% 30.11 in 10.0 mi Calm Calm - N/A   Clear
2:55 AM 31.1 °F - 28.8 °F 91% 30.10 in 10.0 mi Calm Calm - N/A   Clear
3:15 AM 30.0 °F - 28.2 °F 93% 30.10 in 10.0 mi Calm Calm - N/A   Clear
3:35 AM 30.9 °F - 28.6 °F 91% 30.10 in 10.0 mi Calm Calm - N/A   Clear
3:55 AM 28.9 °F - 27.5 °F 94% 30.11 in 10.0 mi Calm Calm - N/A   Clear
4:15 AM 28.2 °F - 26.8 °F 94% 30.11 in 10.0 mi Calm Calm - N/A   Clear
4:35 AM 28.6 °F - 27.3 °F 95% 30.11 in 10.0 mi Calm Calm - N/A   Clear
4:55 AM 29.3 °F - 28.8 °F 98% 30.11 in 10.0 mi Calm Calm - N/A   Clear
5:15 AM 29.1 °F - 28.0 °F 96% 30.11 in 10.0 mi Calm Calm - N/A   Clear
5:35 AM 29.1 °F - 28.4 °F 97% 30.12 in 10.0 mi Calm Calm - N/A   Clear
6:55 AM 28.4 °F - 26.6 °F 93% 30.12 in 10.0 mi Calm Calm - N/A   Clear
7:55 AM 26.6 °F - 26.6 °F 100% 30.12 in 10.0 mi Calm Calm - N/A   Clear
8:55 AM 35.6 °F - 32.0 °F 87% 30.13 in 10.0 mi Calm Calm - N/A   Clear
9:55 AM 46.4 °F - 30.2 °F 53% 30.11 in 10.0 mi Calm Calm - N/A   Clear
10:55 AM 55.4 °F - 33.8 °F 44% 30.11 in 10.0 mi SSE 10.4 mph - N/A   Clear
11:55 AM 60.8 °F - 32.0 °F 34% 30.07 in 10.0 mi SSE 15.0 mph 20.7 mph N/A   Clear
12:55 PM 62.6 °F - 32.0 °F 32% 30.02 in 10.0 mi SSW 16.1 mph 20.7 mph N/A   Clear
1:55 PM 64.4 °F - 32.0 °F 30% 29.99 in 10.0 mi South 13.8 mph 21.9 mph N/A   Clear
2:55 PM 64.4 °F - 32.0 °F 30% 29.98 in 10.0 mi South 11.5 mph 21.9 mph N/A   Clear
3:55 PM 66.2 °F - 32.0 °F 28% 29.96 in 10.0 mi South 15.0 mph 21.9 mph N/A   Clear
10:35 PM 40.3 °F - 34.2 °F 79% 30.05 in 10.0 mi Calm Calm - N/A   Clear
10:55 PM 38.1 °F - 32.4 °F 80% 30.05 in 10.0 mi Calm Calm - N/A   Clear
11:15 PM 38.5 °F - 33.6 °F 83% 30.06 in 10.0 mi Calm Calm - N/A   Clear
11:35 PM 38.8 °F - 33.6 °F 82% 30.06 in 10.0 mi Calm Calm - N/A   Clear
11:55 PM 38.8 °F - 32.9 °F 79% 30.06 in 10.0 mi Calm Calm - N/A   Clear